| time (UTC) | temp F | wind direction | speed knots | gust knots | rain 1hr in | rain 24hr in | rain mn in | humidity % | barometer mb |
| 20260508121056 | 56 | 0 | 0.0 | 0.9 | 0.00 | 0.00 | 0.00 | 91 | 1014.5 |
| 20260508120555 | 56 | 0 | 0.0 | 0.9 | 0.00 | 0.00 | 0.00 | 91 | 1014.4 |
| 20260508120056 | 56 | 0 | 0.0 | 0.0 | 0.00 | 0.00 | 0.00 | 91 | 1014.3 |
| 20260508115556 | 56 | 0 | 0.0 | 0.0 | 0.00 | 0.00 | 0.00 | 91 | 1014.4 |
| 20260508115055 | 56 | 0 | 0.0 | 0.0 | 0.00 | 0.00 | 0.00 | 91 | 1014.5 |
| 20260508114556 | 56 | 0 | 0.0 | 0.0 | 0.00 | 0.00 | 0.00 | 91 | 1014.3 |
| 20260508114055 | 56 | 0 | 0.0 | 0.0 | 0.00 | 0.00 | 0.00 | 91 | 1014.4 |
| 20260508113556 | 56 | 0 | 0.0 | 0.0 | 0.00 | 0.00 | 0.00 | 91 | 1014.6 |
| 20260508113107 | 56 | 0 | 0.0 | 0.0 | 0.00 | 0.00 | 0.00 | 91 | 1014.8 |
| 20260508112555 | 56 | 0 | 0.0 | 0.0 | 0.00 | 0.00 | 0.00 | 91 | 1014.6 |
| 20260508112055 | 55 | 0 | 0.0 | 0.0 | 0.00 | 0.00 | 0.00 | 91 | 1014.5 |
| 20260508111553 | 55 | 0 | 0.0 | 0.0 | 0.00 | 0.00 | 0.00 | 91 | 1014.7 |
| 20260508111055 | 55 | 0 | 0.0 | 0.0 | 0.00 | 0.00 | 0.00 | 91 | 1014.7 |
| 20260508110555 | 55 | 0 | 0.0 | 0.0 | 0.00 | 0.00 | 0.00 | 91 | 1014.7 |
| 20260508110118 | 55 | 0 | 0.0 | 0.0 | 0.00 | 0.00 | 0.00 | 91 | 1014.6 |
| 20260508105555 | 55 | 0 | 0.0 | 0.9 | 0.00 | 0.00 | 0.00 | 91 | 1014.3 |
| 20260508105055 | 55 | 0 | 0.0 | 0.9 | 0.00 | 0.00 | 0.00 | 91 | 1014.6 |
| 20260508104603 | 55 | 199 | 0.0 | 0.9 | 0.00 | 0.00 | 0.00 | 91 | 1014.6 |
| 20260508104056 | 55 | 0 | 0.0 | 0.9 | 0.00 | 0.00 | 0.00 | 91 | 1014.5 |
| 20260508103557 | 55 | 0 | 0.0 | 0.0 | 0.00 | 0.00 | 0.00 | 91 | 1014.4 |
| 20260508103057 | 56 | 0 | 0.0 | 0.0 | 0.00 | 0.00 | 0.00 | 91 | 1014.7 |
| 20260508102555 | 56 | 0 | 0.0 | 0.0 | 0.00 | 0.00 | 0.00 | 91 | 1014.8 |
| 20260508102056 | 56 | 0 | 0.0 | 0.0 | 0.00 | 0.00 | 0.00 | 91 | 1014.6 |
| 20260508101557 | 56 | 0 | 0.0 | 0.0 | 0.00 | 0.00 | 0.00 | 91 | 1014.6 |
| 20260508101057 | 56 | 0 | 0.0 | 0.0 | 0.00 | 0.00 | 0.00 | 91 | 1014.9 |
| 20260508100556 | 56 | 0 | 0.0 | 0.0 | 0.00 | 0.00 | 0.00 | 91 | 1014.8 |
| 20260508100055 | 56 | 0 | 0.0 | 0.0 | 0.00 | 0.00 | 0.00 | 91 | 1014.9 |
| 20260508095600 | 56 | 0 | 0.0 | 0.0 | 0.00 | 0.00 | 0.00 | 91 | 1014.8 |
| 20260508095056 | 56 | 0 | 0.0 | 0.0 | 0.00 | 0.00 | 0.00 | 91 | 1014.5 |
| 20260508094558 | 56 | 0 | 0.0 | 0.0 | 0.00 | 0.00 | 0.00 | 91 | 1014.5 |
| 20260508094055 | 56 | 0 | 0.0 | 0.0 | 0.00 | 0.00 | 0.00 | 91 | 1014.7 |
| 20260508093555 | 56 | 0 | 0.0 | 0.0 | 0.00 | 0.00 | 0.00 | 91 | 1014.6 |
| 20260508093102 | 56 | 0 | 0.0 | 0.0 | 0.00 | 0.00 | 0.00 | 91 | 1014.3 |
| 20260508092559 | 56 | 0 | 0.0 | 0.0 | 0.00 | 0.00 | 0.00 | 91 | 1014.4 |
| 20260508092054 | 56 | 0 | 0.0 | 0.0 | 0.00 | 0.00 | 0.00 | 91 | 1014.3 |
| 20260508091556 | 56 | 0 | 0.0 | 0.0 | 0.00 | 0.00 | 0.00 | 91 | 1014.0 |
| 20260508091056 | 56 | 0 | 0.0 | 0.0 | 0.00 | 0.00 | 0.00 | 90 | 1014.0 |
| 20260508090556 | 57 | 0 | 0.0 | 0.0 | 0.00 | 0.00 | 0.00 | 90 | 1013.9 |
| 20260508090109 | 57 | 0 | 0.0 | 0.0 | 0.00 | 0.00 | 0.00 | 91 | 1014.0 |
| 20260508085555 | 57 | 0 | 0.0 | 0.0 | 0.00 | 0.00 | 0.00 | 90 | 1013.9 |
| 20260508085055 | 57 | 0 | 0.0 | 0.0 | 0.00 | 0.00 | 0.00 | 90 | 1014.1 |
| 20260508084555 | 58 | 0 | 0.0 | 0.0 | 0.00 | 0.00 | 0.00 | 91 | 1013.9 |
| 20260508084059 | 58 | 0 | 0.0 | 1.7 | 0.00 | 0.00 | 0.00 | 91 | 1014.3 |
| 20260508083555 | 58 | 0 | 0.0 | 1.7 | 0.00 | 0.00 | 0.00 | 91 | 1013.9 |
| 20260508083058 | 58 | 0 | 0.0 | 2.6 | 0.00 | 0.00 | 0.00 | 91 | 1014.0 |
| 20260508082555 | 58 | 0 | 0.0 | 2.6 | 0.00 | 0.00 | 0.00 | 91 | 1014.0 |
| 20260508082055 | 58 | 210 | 0.0 | 0.9 | 0.00 | 0.00 | 0.00 | 91 | 1013.9 |
| 20260508081605 | 58 | 0 | 0.0 | 0.0 | 0.00 | 0.00 | 0.00 | 90 | 1014.4 |
| 20260508081054 | 58 | 0 | 0.0 | 0.0 | 0.00 | 0.00 | 0.00 | 90 | 1014.6 |
| 20260508080556 | 58 | 0 | 0.0 | 0.0 | 0.00 | 0.00 | 0.00 | 90 | 1014.7 |
| 20260508080054 | 58 | 0 | 0.0 | 0.0 | 0.00 | 0.00 | 0.00 | 90 | 1014.6 |
| 20260508075556 | 58 | 0 | 0.0 | 0.0 | 0.00 | 0.00 | 0.00 | 90 | 1014.5 |
| 20260508075054 | 58 | 0 | 0.0 | 0.0 | 0.00 | 0.00 | 0.00 | 90 | 1014.8 |
| 20260508074555 | 58 | 0 | 0.0 | 0.0 | 0.00 | 0.00 | 0.00 | 90 | 1014.8 |
| 20260508074057 | 58 | 0 | 0.0 | 0.0 | 0.00 | 0.00 | 0.00 | 90 | 1014.9 |
| 20260508073557 | 58 | 0 | 0.0 | 0.0 | 0.00 | 0.00 | 0.00 | 90 | 1014.9 |
| 20260508073058 | 58 | 0 | 0.0 | 0.0 | 0.00 | 0.00 | 0.00 | 90 | 1015.2 |
| 20260508072556 | 58 | 0 | 0.0 | 0.0 | 0.00 | 0.00 | 0.00 | 90 | 1015.3 |
| 20260508072057 | 58 | 0 | 0.0 | 0.0 | 0.00 | 0.00 | 0.00 | 90 | 1015.4 |
| 20260508071554 | 58 | 0 | 0.0 | 0.0 | 0.00 | 0.00 | 0.00 | 90 | 1015.2 |
| 20260508071057 | 57 | 0 | 0.0 | 0.0 | 0.00 | 0.00 | 0.00 | 90 | 1015.3 |
| 20260508070555 | 57 | 0 | 0.0 | 0.0 | 0.00 | 0.00 | 0.00 | 90 | 1015.2 |
| 20260508070056 | 57 | 0 | 0.0 | 0.0 | 0.00 | 0.00 | 0.00 | 90 | 1015.4 |
| 20260508065558 | 57 | 0 | 0.0 | 0.0 | 0.00 | 0.00 | 0.00 | 90 | 1015.4 |
| 20260508065055 | 56 | 0 | 0.0 | 0.0 | 0.00 | 0.00 | 0.00 | 90 | 1015.3 |
| 20260508064556 | 56 | 0 | 0.0 | 0.0 | 0.00 | 0.00 | 0.00 | 89 | 1015.3 |
| 20260508064055 | 56 | 0 | 0.0 | 0.0 | 0.00 | 0.00 | 0.00 | 89 | 1015.3 |
| 20260508063554 | 57 | 0 | 0.0 | 0.0 | 0.00 | 0.00 | 0.00 | 89 | 1015.3 |
| 20260508063055 | 57 | 0 | 0.0 | 0.0 | 0.00 | 0.00 | 0.00 | 89 | 1015.1 |
| 20260508062555 | 57 | 0 | 0.0 | 0.0 | 0.00 | 0.00 | 0.00 | 89 | 1015.2 |
| 20260508062054 | 57 | 0 | 0.0 | 0.0 | 0.00 | 0.00 | 0.00 | 89 | 1015.5 |
| 20260508061609 | 57 | 0 | 0.0 | 0.0 | 0.00 | 0.00 | 0.00 | 89 | 1015.5 |
| 20260508061056 | 57 | 0 | 0.0 | 0.0 | 0.00 | 0.00 | 0.00 | 89 | 1015.4 |
| 20260508060556 | 58 | 0 | 0.0 | 0.0 | 0.00 | 0.00 | 0.00 | 89 | 1015.4 |
| 20260508055555 | 58 | 0 | 0.0 | 0.0 | 0.00 | 0.00 | 0.00 | 89 | 1015.4 |
| 20260508055055 | 58 | 0 | 0.0 | 0.0 | 0.00 | 0.00 | 0.00 | 89 | 1015.4 |
| 20260508054640 | 58 | 0 | 0.0 | 0.0 | 0.00 | 0.00 | 0.00 | 88 | 1015.4 |
| 20260508054055 | 58 | 0 | 0.0 | 0.0 | 0.00 | 0.00 | 0.00 | 88 | 1015.4 |
| 20260508053555 | 58 | 0 | 0.0 | 0.0 | 0.00 | 0.00 | 0.00 | 88 | 1015.5 |
| 20260508053103 | 58 | 0 | 0.0 | 0.0 | 0.00 | 0.00 | 0.00 | 88 | 1015.5 |
| 20260508052555 | 57 | 0 | 0.0 | 0.0 | 0.00 | 0.00 | 0.00 | 88 | 1015.5 |
| 20260508052054 | 58 | 0 | 0.0 | 0.0 | 0.00 | 0.00 | 0.00 | 88 | 1015.5 |
| 20260508051609 | 58 | 0 | 0.0 | 0.0 | 0.00 | 0.00 | 0.00 | 87 | 1015.5 |
| 20260508051056 | 58 | 0 | 0.0 | 0.0 | 0.00 | 0.00 | 0.00 | 87 | 1015.7 |
| 20260508050556 | 58 | 0 | 0.0 | 0.0 | 0.00 | 0.00 | 0.00 | 87 | 1015.6 |
| 20260508050057 | 58 | 0 | 0.0 | 0.0 | 0.00 | 0.00 | 0.00 | 86 | 1015.8 |
| 20260508045556 | 59 | 0 | 0.0 | 0.0 | 0.00 | 0.00 | 0.00 | 86 | 1015.8 |
| 20260508045054 | 59 | 0 | 0.0 | 0.0 | 0.00 | 0.00 | 0.00 | 87 | 1015.9 |
| 20260508044606 | 59 | 0 | 0.0 | 0.0 | 0.00 | 0.00 | 0.00 | 87 | 1015.8 |
| 20260508044056 | 59 | 0 | 0.0 | 0.0 | 0.00 | 0.00 | 0.00 | 87 | 1015.8 |
| 20260508043555 | 59 | 0 | 0.0 | 0.0 | 0.00 | 0.00 | 0.00 | 86 | 1015.8 |
| 20260508043103 | 59 | 0 | 0.0 | 0.0 | 0.00 | 0.00 | 0.00 | 86 | 1016.0 |
| 20260508042555 | 59 | 0 | 0.0 | 0.0 | 0.00 | 0.00 | 0.00 | 86 | 1015.7 |
| 20260508042057 | 59 | 0 | 0.0 | 0.0 | 0.00 | 0.00 | 0.00 | 86 | 1015.8 |
| 20260508041559 | 59 | 0 | 0.0 | 0.0 | 0.00 | 0.00 | 0.00 | 85 | 1015.9 |
| 20260508041055 | 59 | 0 | 0.0 | 0.0 | 0.00 | 0.00 | 0.00 | 85 | 1015.8 |
| 20260508040555 | 59 | 0 | 0.0 | 0.0 | 0.00 | 0.00 | 0.00 | 85 | 1015.6 |
| 20260508040101 | 60 | 0 | 0.0 | 0.0 | 0.00 | 0.00 | 0.00 | 85 | 1015.9 |
| 20260508035555 | 60 | 0 | 0.0 | 0.0 | 0.00 | 0.00 | 0.00 | 85 | 1016.0 |
| 20260508035055 | 60 | 0 | 0.0 | 0.0 | 0.00 | 0.00 | 0.00 | 85 | 1015.8 |
| 20260508034606 | 60 | 0 | 0.0 | 0.0 | 0.00 | 0.00 | 0.00 | 84 | 1015.7 |
| 20260508034052 | 60 | 0 | 0.0 | 0.0 | 0.00 | 0.00 | 0.00 | 84 | 1015.8 |
| 20260508033552 | 60 | 0 | 0.0 | 0.0 | 0.00 | 0.00 | 0.00 | 84 | 1015.6 |
| 20260508033059 | 60 | 0 | 0.0 | 0.0 | 0.00 | 0.00 | 0.00 | 84 | 1015.6 |
| 20260508032558 | 60 | 0 | 0.0 | 0.0 | 0.00 | 0.00 | 0.00 | 84 | 1015.6 |
| 20260508032056 | 60 | 0 | 0.0 | 0.0 | 0.00 | 0.00 | 0.00 | 84 | 1015.3 |
| 20260508031610 | 60 | 0 | 0.0 | 0.0 | 0.00 | 0.00 | 0.00 | 84 | 1015.4 |
| 20260508031055 | 60 | 0 | 0.0 | 0.0 | 0.00 | 0.00 | 0.00 | 83 | 1015.3 |
| 20260508030555 | 60 | 0 | 0.0 | 0.0 | 0.00 | 0.00 | 0.00 | 83 | 1015.3 |
| 20260508030115 | 60 | 0 | 0.0 | 0.0 | 0.00 | 0.00 | 0.00 | 83 | 1015.3 |
| 20260508025555 | 60 | 0 | 0.0 | 0.0 | 0.00 | 0.00 | 0.00 | 83 | 1015.1 |
| 20260508025055 | 60 | 0 | 0.0 | 0.0 | 0.00 | 0.00 | 0.00 | 82 | 1014.9 |
| 20260508024607 | 61 | 0 | 0.0 | 0.0 | 0.00 | 0.00 | 0.00 | 82 | 1014.8 |
| 20260508024055 | 61 | 0 | 0.0 | 0.0 | 0.00 | 0.00 | 0.00 | 82 | 1014.8 |
| 20260508023558 | 61 | 0 | 0.0 | 0.0 | 0.00 | 0.00 | 0.00 | 82 | 1014.7 |
| 20260508023058 | 61 | 0 | 0.0 | 0.0 | 0.00 | 0.00 | 0.00 | 82 | 1014.9 |
| 20260508022554 | 61 | 0 | 0.0 | 0.0 | 0.00 | 0.00 | 0.00 | 82 | 1014.7 |
| 20260508022055 | 61 | 0 | 0.0 | 0.0 | 0.00 | 0.00 | 0.00 | 82 | 1014.8 |
| 20260508021618 | 62 | 0 | 0.0 | 0.0 | 0.00 | 0.00 | 0.00 | 81 | 1014.7 |
| 20260508021056 | 62 | 0 | 0.0 | 0.0 | 0.00 | 0.00 | 0.00 | 81 | 1014.6 |
| 20260508020554 | 61 | 0 | 0.0 | 0.0 | 0.00 | 0.00 | 0.00 | 81 | 1014.6 |
| 20260508020054 | 61 | 0 | 0.0 | 0.0 | 0.00 | 0.00 | 0.00 | 81 | 1014.7 |
| 20260508015555 | 61 | 0 | 0.0 | 0.0 | 0.00 | 0.00 | 0.00 | 80 | 1014.4 |
| 20260508015055 | 62 | 0 | 0.0 | 0.0 | 0.00 | 0.00 | 0.00 | 80 | 1014.6 |
| 20260508014603 | 62 | 0 | 0.0 | 0.0 | 0.00 | 0.00 | 0.00 | 80 | 1014.6 |
| 20260508014055 | 62 | 0 | 0.0 | 0.0 | 0.00 | 0.00 | 0.00 | 79 | 1014.7 |
| 20260508013555 | 62 | 0 | 0.0 | 0.0 | 0.00 | 0.00 | 0.00 | 79 | 1014.7 |
| 20260508013106 | 62 | 0 | 0.0 | 0.0 | 0.00 | 0.00 | 0.00 | 80 | 1014.5 |
| 20260508012555 | 63 | 0 | 0.0 | 0.0 | 0.00 | 0.00 | 0.00 | 79 | 1014.7 |
| 20260508012057 | 63 | 0 | 0.0 | 0.0 | 0.00 | 0.00 | 0.00 | 79 | 1014.7 |
| 20260508011603 | 63 | 0 | 0.0 | 0.0 | 0.00 | 0.00 | 0.00 | 78 | 1015.0 |
| 20260508011056 | 63 | 0 | 0.0 | 0.0 | 0.00 | 0.00 | 0.00 | 78 | 1015.1 |
| 20260508010554 | 63 | 0 | 0.0 | 0.0 | 0.00 | 0.00 | 0.00 | 78 | 1015.0 |
| 20260508010057 | 64 | 0 | 0.0 | 0.0 | 0.00 | 0.00 | 0.00 | 77 | 1014.8 |
| 20260508005557 | 64 | 0 | 0.0 | 0.0 | 0.00 | 0.00 | 0.00 | 77 | 1014.9 |
| 20260508005100 | 64 | 0 | 0.0 | 0.0 | 0.00 | 0.00 | 0.00 | 76 | 1014.8 |
| 20260508004559 | 64 | 0 | 0.0 | 0.0 | 0.00 | 0.00 | 0.00 | 76 | 1014.9 |
| 20260508004055 | 64 | 0 | 0.0 | 0.0 | 0.00 | 0.00 | 0.00 | 75 | 1014.7 |
| 20260508003555 | 65 | 0 | 0.0 | 0.0 | 0.00 | 0.00 | 0.00 | 73 | 1015.0 |
| 20260508003104 | 66 | 0 | 0.0 | 0.9 | 0.00 | 0.00 | 0.00 | 70 | 1015.0 |
| 20260508002555 | 66 | 0 | 0.0 | 0.9 | 0.00 | 0.00 | 0.00 | 70 | 1015.0 |
| 20260508002055 | 66 | 0 | 0.0 | 0.9 | 0.00 | 0.00 | 0.00 | 68 | 1014.8 |
| 20260508001601 | 66 | 0 | 0.0 | 0.0 | 0.00 | 0.00 | 0.00 | 69 | 1014.9 |
| 20260508001055 | 67 | 0 | 0.0 | 0.0 | 0.00 | 0.00 | 0.00 | 69 | 1014.9 |
| 20260508000555 | 66 | 0 | 0.0 | 0.0 | 0.00 | 0.00 | 0.00 | 69 | 1015.0 |
| 20260508000057 | 66 | 0 | 0.0 | 0.0 | 0.00 | 0.00 | 0.00 | 70 | 1014.9 |
| 20260507235554 | 66 | 0 | 0.0 | 0.0 | 0.00 | 0.00 | 0.00 | 68 | 1015.0 |
| 20260507235054 | 66 | 0 | 0.0 | 0.9 | 0.00 | 0.00 | 0.00 | 67 | 1015.1 |
| 20260507234557 | 67 | 0 | 0.0 | 1.7 | 0.00 | 0.00 | 0.00 | 67 | 1015.2 |
| 20260507234056 | 67 | 0 | 0.0 | 1.7 | 0.00 | 0.00 | 0.00 | 66 | 1015.4 |
| 20260507233555 | 67 | 0 | 0.0 | 1.7 | 0.00 | 0.00 | 0.00 | 66 | 1015.5 |
| 20260507233056 | 67 | 0 | 0.0 | 0.9 | 0.00 | 0.00 | 0.00 | 65 | 1015.5 |
| 20260507232552 | 67 | 220 | 0.0 | 1.7 | 0.00 | 0.00 | 0.00 | 65 | 1015.5 |
| 20260507232054 | 67 | 0 | 0.0 | 1.7 | 0.00 | 0.00 | 0.00 | 65 | 1015.5 |
| 20260507231559 | 67 | 0 | 0.0 | 1.7 | 0.00 | 0.00 | 0.00 | 64 | 1015.4 |
| 20260507231055 | 67 | 0 | 0.0 | 2.6 | 0.00 | 0.00 | 0.00 | 65 | 1015.3 |
| 20260507230555 | 67 | 0 | 0.0 | 2.6 | 0.00 | 0.00 | 0.00 | 65 | 1015.4 |
| 20260507230057 | 68 | 0 | 0.0 | 2.6 | 0.00 | 0.00 | 0.00 | 66 | 1015.4 |
| 20260507225556 | 68 | 0 | 0.0 | 1.7 | 0.00 | 0.02 | 0.00 | 64 | 1015.6 |
| 20260507225055 | 68 | 135 | 0.0 | 1.7 | 0.00 | 0.02 | 0.00 | 64 | 1015.3 |
| 20260507224601 | 68 | 0 | 0.0 | 1.7 | 0.00 | 0.02 | 0.00 | 65 | 1015.4 |
| 20260507224054 | 68 | 0 | 0.0 | 1.7 | 0.00 | 0.02 | 0.00 | 65 | 1015.5 |
| 20260507223558 | 68 | 0 | 0.0 | 0.9 | 0.00 | 0.02 | 0.00 | 63 | 1015.4 |
| 20260507223052 | 68 | 0 | 0.0 | 2.6 | 0.00 | 0.02 | 0.00 | 65 | 1015.4 |
| 20260507222557 | 68 | 0 | 0.0 | 2.6 | 0.00 | 0.02 | 0.00 | 64 | 1015.3 |
| 20260507222054 | 68 | 0 | 0.0 | 1.7 | 0.00 | 0.02 | 0.00 | 66 | 1015.2 |
| 20260507221556 | 68 | 32 | 0.0 | 1.7 | 0.00 | 0.02 | 0.00 | 64 | 1015.6 |
| 20260507221055 | 68 | 0 | 0.0 | 2.6 | 0.00 | 0.02 | 0.00 | 64 | 1015.8 |
| 20260507220554 | 68 | 0 | 0.0 | 2.6 | 0.00 | 0.02 | 0.00 | 66 | 1015.8 |
| 20260507220057 | 68 | 0 | 0.0 | 2.6 | 0.00 | 0.02 | 0.00 | 65 | 1015.9 |
| 20260507215557 | 68 | 88 | 0.0 | 2.6 | 0.00 | 0.02 | 0.00 | 64 | 1016.0 |
| 20260507215054 | 68 | 0 | 0.0 | 2.6 | 0.00 | 0.02 | 0.00 | 63 | 1015.8 |
| 20260507214559 | 68 | 27 | 0.9 | 2.6 | 0.00 | 0.02 | 0.00 | 63 | 1016.0 |
| 20260507214054 | 68 | 59 | 0.0 | 1.7 | 0.00 | 0.02 | 0.00 | 63 | 1015.9 |
| 20260507213554 | 68 | 175 | 0.0 | 1.7 | 0.00 | 0.02 | 0.00 | 63 | 1015.8 |
| 20260507213056 | 68 | 126 | 0.0 | 3.5 | 0.00 | 0.02 | 0.00 | 62 | 1016.0 |
| 20260507212554 | 69 | 0 | 0.0 | 3.5 | 0.00 | 0.02 | 0.00 | 63 | 1016.0 |
| 20260507212055 | 69 | 72 | 0.0 | 3.5 | 0.00 | 0.02 | 0.00 | 62 | 1016.3 |
| 20260507211554 | 68 | 206 | 0.0 | 2.6 | 0.00 | 0.02 | 0.00 | 63 | 1016.1 |
| 20260507211054 | 68 | 34 | 0.0 | 2.6 | 0.00 | 0.02 | 0.00 | 64 | 1016.3 |
| 20260507210556 | 68 | 0 | 0.0 | 3.5 | 0.00 | 0.02 | 0.00 | 64 | 1016.3 |
| 20260507210120 | 69 | 65 | 0.0 | 3.5 | 0.00 | 0.02 | 0.00 | 64 | 1016.5 |
| 20260507205556 | 69 | 217 | 0.9 | 3.5 | 0.00 | 0.02 | 0.00 | 63 | 1016.6 |
| 20260507205056 | 69 | 0 | 0.0 | 5.2 | 0.00 | 0.02 | 0.00 | 64 | 1016.5 |
| 20260507204600 | 69 | 53 | 0.0 | 5.2 | 0.00 | 0.02 | 0.00 | 63 | 1016.7 |
| 20260507204059 | 69 | 53 | 0.0 | 2.6 | 0.00 | 0.02 | 0.00 | 63 | 1016.9 |
| 20260507203556 | 69 | 0 | 0.0 | 2.6 | 0.00 | 0.02 | 0.00 | 61 | 1016.8 |
| 20260507203102 | 69 | 97 | 0.9 | 2.6 | 0.00 | 0.02 | 0.00 | 60 | 1016.8 |
| 20260507202555 | 70 | 0 | 0.0 | 4.3 | 0.00 | 0.02 | 0.00 | 62 | 1016.5 |
| 20260507202058 | 70 | 153 | 0.9 | 4.3 | 0.00 | 0.02 | 0.00 | 62 | 1016.6 |
| 20260507201554 | 69 | 130 | 0.9 | 4.3 | 0.00 | 0.02 | 0.00 | 61 | 1016.7 |
| 20260507201059 | 70 | 0 | 0.0 | 1.7 | 0.00 | 0.02 | 0.00 | 62 | 1016.8 |
| 20260507200556 | 70 | 158 | 0.0 | 2.6 | 0.00 | 0.02 | 0.00 | 61 | 1016.7 |
| 20260507200106 | 70 | 0 | 0.0 | 2.6 | 0.00 | 0.02 | 0.00 | 60 | 1016.6 |
| 20260507195558 | 70 | 0 | 0.0 | 1.7 | 0.00 | 0.02 | 0.00 | 62 | 1016.4 |
| 20260507195056 | 70 | 0 | 0.0 | 2.6 | 0.00 | 0.02 | 0.00 | 62 | 1016.5 |
| 20260507194557 | 70 | 0 | 0.0 | 2.6 | 0.00 | 0.02 | 0.00 | 64 | 1016.6 |
| 20260507194059 | 69 | 208 | 0.0 | 2.6 | 0.00 | 0.02 | 0.00 | 59 | 1016.5 |
| 20260507193557 | 70 | 313 | 0.0 | 2.6 | 0.00 | 0.02 | 0.00 | 62 | 1016.7 |
| 20260507193132 | 70 | 0 | 0.0 | 2.6 | 0.00 | 0.02 | 0.00 | 59 | 1016.6 |
| 20260507192555 | 70 | 320 | 0.0 | 1.7 | 0.00 | 0.02 | 0.00 | 61 | 1016.7 |
| 20260507192100 | 70 | 0 | 0.0 | 1.7 | 0.00 | 0.02 | 0.00 | 62 | 1016.9 |
| 20260507191600 | 69 | 0 | 0.0 | 2.6 | 0.00 | 0.02 | 0.00 | 61 | 1017.0 |
| 20260507191100 | 69 | 0 | 0.9 | 2.6 | 0.00 | 0.02 | 0.00 | 59 | 1016.9 |
| 20260507190556 | 70 | 225 | 0.9 | 2.6 | 0.00 | 0.02 | 0.00 | 60 | 1017.3 |
| 20260507190055 | 70 | 0 | 0.0 | 2.6 | 0.00 | 0.02 | 0.00 | 60 | 1017.4 |
| 20260507185556 | 71 | 0 | 0.0 | 3.5 | 0.00 | 0.02 | 0.00 | 63 | 1017.6 |
| 20260507185056 | 71 | 302 | 0.0 | 3.5 | 0.00 | 0.02 | 0.00 | 61 | 1017.8 |
| 20260507184558 | 71 | 157 | 0.0 | 1.7 | 0.00 | 0.02 | 0.00 | 61 | 1018.0 |
| 20260507184100 | 71 | 328 | 0.0 | 1.7 | 0.00 | 0.02 | 0.00 | 61 | 1018.0 |
| 20260507183555 | 71 | 0 | 0.0 | 1.7 | 0.00 | 0.02 | 0.00 | 59 | 1018.1 |
| 20260507183103 | 72 | 154 | 0.0 | 1.7 | 0.00 | 0.02 | 0.00 | 61 | 1018.2 |
| 20260507182556 | 72 | 0 | 0.0 | 1.7 | 0.00 | 0.02 | 0.00 | 61 | 1018.0 |
| 20260507182055 | 71 | 0 | 0.0 | 2.6 | 0.00 | 0.02 | 0.00 | 62 | 1018.0 |
| 20260507181556 | 69 | 169 | 0.9 | 2.6 | 0.00 | 0.02 | 0.00 | 61 | 1018.1 |
| 20260507181055 | 70 | 244 | 0.0 | 2.6 | 0.00 | 0.02 | 0.00 | 62 | 1018.0 |
| 20260507180558 | 70 | 184 | 0.9 | 3.5 | 0.00 | 0.02 | 0.00 | 60 | 1018.0 |
| 20260507180119 | 71 | 0 | 0.9 | 3.5 | 0.00 | 0.02 | 0.00 | 58 | 1018.0 |
| 20260507175559 | 71 | 43 | 0.0 | 2.6 | 0.00 | 0.02 | 0.00 | 62 | 1017.9 |
| 20260507175054 | 71 | 150 | 0.0 | 2.6 | 0.00 | 0.02 | 0.00 | 68 | 1018.1 |
| 20260507174604 | 71 | 317 | 0.0 | 2.6 | 0.00 | 0.02 | 0.00 | 66 | 1018.0 |
| 20260507174056 | 71 | 0 | 0.0 | 2.6 | 0.00 | 0.02 | 0.00 | 66 | 1018.1 |
| 20260507173552 | 69 | 0 | 0.0 | 3.5 | 0.00 | 0.02 | 0.00 | 66 | 1017.9 |
| 20260507173131 | 68 | 0 | 0.0 | 4.3 | 0.00 | 0.02 | 0.00 | 64 | 1018.1 |
| 20260507172554 | 68 | 287 | 0.9 | 4.3 | 0.00 | 0.02 | 0.00 | 64 | 1018.2 |
| 20260507172051 | 69 | 202 | 0.0 | 3.5 | 0.00 | 0.02 | 0.00 | 64 | 1018.2 |
| 20260507171601 | 70 | 93 | 0.0 | 3.5 | 0.00 | 0.02 | 0.00 | 68 | 1018.2 |
| 20260507171055 | 68 | 254 | 0.0 | 1.7 | 0.00 | 0.02 | 0.00 | 72 | 1018.4 |
| 20260507170557 | 67 | 273 | 0.0 | 3.5 | 0.00 | 0.02 | 0.00 | 66 | 1018.5 |
| 20260507170057 | 67 | 0 | 0.0 | 3.5 | 0.00 | 0.02 | 0.00 | 69 | 1018.7 |
| 20260507165554 | 66 | 0 | 0.0 | 2.6 | 0.00 | 0.02 | 0.00 | 66 | 1018.7 |
| 20260507165055 | 67 | 352 | 0.0 | 1.7 | 0.00 | 0.02 | 0.00 | 69 | 1018.8 |
| 20260507164605 | 67 | 280 | 0.0 | 1.7 | 0.00 | 0.02 | 0.00 | 68 | 1019.1 |
| 20260507164055 | 67 | 0 | 0.0 | 1.7 | 0.00 | 0.02 | 0.00 | 68 | 1019.2 |
| 20260507163554 | 67 | 328 | 0.0 | 1.7 | 0.00 | 0.02 | 0.00 | 68 | 1019.2 |
| 20260507163054 | 66 | 28 | 0.0 | 2.6 | 0.00 | 0.02 | 0.00 | 69 | 1019.3 |
| 20260507162557 | 65 | 0 | 0.0 | 2.6 | 0.00 | 0.02 | 0.00 | 71 | 1019.6 |
| 20260507162056 | 66 | 175 | 0.0 | 3.5 | 0.00 | 0.02 | 0.00 | 71 | 1019.5 |
| 20260507161608 | 66 | 0 | 0.0 | 3.5 | 0.00 | 0.02 | 0.00 | 70 | 1019.7 |
| 20260507161054 | 65 | 259 | 0.0 | 2.6 | 0.00 | 0.02 | 0.00 | 71 | 1019.6 |
| 20260507160554 | 65 | 213 | 0.0 | 2.6 | 0.00 | 0.02 | 0.00 | 71 | 1019.5 |
| 20260507160116 | 66 | 198 | 0.0 | 3.5 | 0.00 | 0.02 | 0.00 | 73 | 1019.5 |
| 20260507155553 | 66 | 0 | 0.0 | 3.5 | 0.00 | 0.02 | 0.00 | 72 | 1019.5 |
| 20260507155054 | 66 | 163 | 0.0 | 1.7 | 0.00 | 0.02 | 0.00 | 75 | 1019.5 |
| 20260507154556 | 65 | 0 | 0.0 | 1.7 | 0.00 | 0.02 | 0.00 | 73 | 1019.5 |
| 20260507154054 | 64 | 0 | 0.0 | 1.7 | 0.00 | 0.02 | 0.00 | 75 | 1019.5 |
| 20260507153552 | 64 | 0 | 0.0 | 2.6 | 0.00 | 0.02 | 0.00 | 75 | 1019.7 |
| 20260507153055 | 65 | 173 | 0.0 | 2.6 | 0.00 | 0.02 | 0.00 | 73 | 1019.6 |
| 20260507152555 | 65 | 31 | 0.0 | 1.7 | 0.00 | 0.02 | 0.00 | 75 | 1019.5 |
| 20260507152055 | 65 | 0 | 0.0 | 1.7 | 0.00 | 0.02 | 0.00 | 74 | 1019.5 |
| 20260507151558 | 64 | 0 | 0.0 | 4.3 | 0.00 | 0.02 | 0.00 | 79 | 1019.5 |
| 20260507151056 | 62 | 174 | 0.0 | 4.3 | 0.00 | 0.02 | 0.00 | 79 | 1019.7 |
| 20260507150554 | 62 | 220 | 0.0 | 2.6 | 0.00 | 0.02 | 0.00 | 76 | 1019.6 |
| 20260507150054 | 62 | 0 | 0.0 | 1.7 | 0.00 | 0.02 | 0.00 | 76 | 1019.7 |
| 20260507145554 | 63 | 0 | 0.0 | 1.7 | 0.00 | 0.05 | 0.00 | 76 | 1019.9 |
| 20260507145054 | 63 | 0 | 0.0 | 2.6 | 0.00 | 0.05 | 0.00 | 77 | 1019.7 |
| 20260507144604 | 63 | 174 | 0.0 | 2.6 | 0.00 | 0.05 | 0.00 | 78 | 1019.7 |
| 20260507144056 | 62 | 15 | 0.0 | 2.6 | 0.00 | 0.05 | 0.00 | 79 | 1019.7 |
| 20260507143555 | 62 | 0 | 0.0 | 2.6 | 0.00 | 0.05 | 0.00 | 80 | 1019.7 |
| 20260507143100 | 61 | 0 | 0.0 | 1.7 | 0.00 | 0.05 | 0.00 | 82 | 1019.8 |
| 20260507142556 | 60 | 0 | 0.0 | 1.7 | 0.00 | 0.05 | 0.00 | 84 | 1020.0 |
| 20260507142056 | 60 | 0 | 0.0 | 1.7 | 0.00 | 0.05 | 0.00 | 83 | 1019.9 |
| 20260507141619 | 60 | 0 | 0.0 | 1.7 | 0.00 | 0.05 | 0.00 | 84 | 1020.1 |
| 20260507141055 | 59 | 0 | 0.0 | 1.7 | 0.00 | 0.05 | 0.00 | 85 | 1020.1 |
| 20260507140557 | 58 | 0 | 0.0 | 1.7 | 0.00 | 0.05 | 0.00 | 85 | 1020.2 |
| 20260507140110 | 58 | 65 | 0.0 | 1.7 | 0.00 | 0.05 | 0.00 | 84 | 1020.0 |
| 20260507135600 | 58 | 0 | 0.0 | 1.7 | 0.00 | 0.05 | 0.00 | 85 | 1020.1 |
| 20260507135056 | 57 | 0 | 0.0 | 0.9 | 0.00 | 0.05 | 0.00 | 86 | 1020.3 |
| 20260507134603 | 57 | 0 | 0.0 | 0.9 | 0.00 | 0.05 | 0.00 | 87 | 1020.2 |
| 20260507134056 | 56 | 0 | 0.0 | 1.7 | 0.00 | 0.05 | 0.00 | 87 | 1020.2 |
| 20260507133556 | 56 | 0 | 0.0 | 1.7 | 0.00 | 0.05 | 0.00 | 87 | 1020.2 |
| 20260507133056 | 56 | 315 | 0.0 | 1.7 | 0.00 | 0.05 | 0.00 | 88 | 1020.2 |
| 20260507132555 | 55 | 0 | 0.0 | 1.7 | 0.00 | 0.05 | 0.00 | 89 | 1020.0 |
| 20260507132055 | 55 | 0 | 0.0 | 1.7 | 0.00 | 0.05 | 0.00 | 89 | 1020.3 |
| 20260507131556 | 54 | 0 | 0.0 | 0.9 | 0.00 | 0.05 | 0.00 | 89 | 1020.3 |
| 20260507131057 | 54 | 0 | 0.0 | 0.9 | 0.00 | 0.05 | 0.00 | 89 | 1020.2 |
| 20260507130556 | 54 | 0 | 0.0 | 0.9 | 0.00 | 0.05 | 0.00 | 89 | 1020.2 |
| 20260507130053 | 54 | 0 | 0.0 | 0.0 | 0.00 | 0.05 | 0.00 | 90 | 1020.2 |
| 20260507125556 | 54 | 0 | 0.0 | 0.0 | 0.00 | 0.05 | 0.00 | 89 | 1020.2 |
| 20260507125056 | 54 | 0 | 0.0 | 0.0 | 0.00 | 0.05 | 0.00 | 90 | 1020.2 |
| 20260507124554 | 54 | 0 | 0.0 | 0.0 | 0.00 | 0.05 | 0.00 | 90 | 1020.1 |
| 20260507124056 | 53 | 0 | 0.0 | 0.9 | 0.00 | 0.05 | 0.00 | 90 | 1020.0 |
| 20260507123556 | 53 | 0 | 0.0 | 0.9 | 0.00 | 0.05 | 0.00 | 90 | 1020.0 |
| 20260507123057 | 53 | 0 | 0.0 | 0.0 | 0.00 | 0.05 | 0.00 | 90 | 1020.2 |
| 20260507122556 | 52 | 0 | 0.0 | 0.0 | 0.00 | 0.05 | 0.00 | 90 | 1020.3 |
| 20260507122056 | 52 | 0 | 0.0 | 0.9 | 0.00 | 0.05 | 0.00 | 90 | 1020.3 |
| 20260507121557 | 52 | 0 | 0.0 | 0.9 | 0.00 | 0.05 | 0.00 | 89 | 1020.3 |